Wind_Speed
27 29 32 34 35 37 38 38 39 39 38 38 38 38 37 37 36 36 35 33 29 28 30 34 38 40 40 39 39 37 36 36 35 34 32 31 30 28 27 26 25 24 22
28 30 31 32 33 35 35 36 36 37 38 38 39 39 39 39 38 38 36 33 30 28 29 31 33 36 40 40 38 36 36 35 34 34 33 32 30 29 28 27 26 25 23
26 28 30 32 33 35 35 36 37 38 39 40 40 41 41 41 40 39 37 35 34 31 30 30 32 34 35 36 36 37 36 35 34 33 32 32 31 29 28 28 27 26 24
27 29 31 33 35 36 37 38 39 40 42 42 43 43 43 43 42 41 40 39 37 35 33 32 32 34 34 34 36 36 36 34 33 33 32 32 31 30 29 29 29 28 26
29 31 33 35 36 37 39 40 41 43 44 45 45 45 45 45 44 44 43 42 41 40 38 36 35 35 36 36 37 37 37 36 35 35 34 33 32 32 31 31 30 30 28
30 32 34 35 36 38 40 41 42 43 44 45 45 46 46 46 45 45 44 44 44 43 43 42 41 40 40 39 39 39 39 38 37 37 36 35 35 34 34 34 33 32 30
31 33 34 35 36 38 39 41 41 42 43 43 43 43 43 42 42 42 42 43 43 44 45 46 46 46 45 44 44 43 43 41 40 39 39 38 38 38 37 36 36 34 32
32 33 35 36 37 38 39 40 40 40 40 40 39 39 39 39 39 40 40 41 42 44 45 46 48 50 51 51 50 49 48 47 45 43 43 42 41 41 40 39 38 37 35
33 35 36 38 38 39 39 39 38 37 36 35 35 35 36 37 38 39 40 41 43 44 46 47 49 51 53 55 56 56 55 53 50 48 47 46 45 45 44 43 42 40 39
35 37 38 39 39 39 39 39 37 35 34 34 34 35 37 38 40 42 44 45 47 48 49 50 51 52 54 56 59 60 61 60 57 55 52 50 50 48 47 47 45 44 42
37 39 39 40 40 40 40 39 37 35 35 35 36 38 40 42 44 46 48 49 50 52 53 54 54 55 56 57 59 62 64 65 64 61 59 55 53 52 51 50 49 47 46
39 40 40 41 41 41 40 39 38 37 36 37 38 41 44 46 48 50 52 53 54 55 56 57 58 58 59 60 61 63 65 67 69 68 66 63 59 56 54 54 52 50 49
40 41 41 41 41 41 41 39 38 38 38 40 42 45 48 50 52 54 56 56 56 56 57 58 59 60 61 62 63 64 66 69 70 72 72 69 66 62 58 56 55 53 51
41 41 41 42 42 42 41 40 39 39 40 42 45 47 50 52 54 56 56 56 55 55 56 57 58 60 62 63 64 65 67 69 71 73 74 75 71 67 64 59 57 56 54
42 43 43 43 42 42 41 40 39 40 41 44 47 49 51 54 55 56 56 55 55 54 54 55 56 57 59 61 62 63 65 67 70 73 75 77 77 73 68 65 61 59 57
43 43 44 43 43 43 42 40 39 40 42 45 48 50 52 54 55 55 55 54 53 52 51 50 51 53 54 56 57 58 61 62 64 69 73 77 78 78 73 69 66 62 59
44 44 44 44 44 43 42 40 40 41 43 47 49 52 53 54 54 54 53 51 49 48 46 45 46 47 49 52 53 54 55 56 57 60 65 72 76 79 78 74 69 67 62
45 46 46 45 45 44 43 41 41 42 45 48 50 52 53 53 53 52 50 48 46 43 40 38 39 41 43 45 48 49 49 49 49 51 55 61 69 74 77 76 73 69 64
47 48 48 47 47 45 43 42 42 43 46 49 51 52 53 52 52 50 47 44 40 36 34 33 33 34 37 40 43 44 44 44 44 44 46 50 56 65 71 73 73 72 68
48 49 49 48 48 46 44 43 43 44 47 49 51 52 52 52 50 47 44 40 35 31 27 26 26 28 31 34 37 39 39 40 40 40 40 42 47 54 62 68 71 72 69
49 49 49 49 48 47 45 44 43 45 47 49 50 51 51 51 48 45 41 36 32 27 23 20 19 22 25 28 31 34 36 37 36 36 36 36 40 46 52 59 64 67 68
49 49 48 48 48 47 45 44 43 44 46 48 49 49 49 49 46 43 39 34 30 24 19 15 14 17 21 24 27 29 33 35 34 33 34 34 35 38 44 50 56 63 65
49 48 48 47 47 47 46 44 43 44 46 47 48 48 47 47 44 42 37 32 28 22 16 12 11 12 16 20 23 26 30 32 32 31 32 32 32 33 37 43 49 54 60
49 48 47 47 46 46 45 44 43 43 45 46 46 46 45 44 43 40 36 31 26 21 15 9 7 10 14 18 20 23 27 29 29 29 29 29 29 30 31 36 42 47 52
49 48 47 46 46 45 44 43 42 42 43 44 45 44 44 43 41 38 34 31 26 21 14 8 3 8 13 18 20 22 25 27 28 27 27 27 27 28 29 31 36 42 47
48 47 46 46 45 44 43 42 41 41 42 42 43 43 42 41 39 36 33 29 26 21 16 9 1 5 12 16 19 21 23 25 26 26 25 25 25 26 28 29 32 37 42
Wind_Direction
285 286 287 289 291 293 294 293 293 292 292 293 292 292 292 292 293 295 296 297 292 279 267 255 249 245 245 247 247 246 246 246 248 248 247 247 246 244 242 241 240 238 237
289 291 293 295 296 298 298 297 295 294 293 292 292 291 291 291 292 293 293 290 288 283 273 260 252 248 246 245 245 242 243 245 246 247 247 245 244 241 239 236 234 233 232
299 299 299 299 299 299 299 297 296 295 294 292 291 290 290 289 288 288 287 286 284 281 276 263 257 253 248 244 243 243 242 243 245 246 245 243 241 238 236 232 230 229 229
303 302 302 301 300 299 298 298 296 295 294 293 291 290 289 287 286 285 283 281 279 275 272 268 261 255 251 247 246 243 241 241 242 243 243 241 239 236 233 230 228 227 227
304 304 303 302 301 300 299 298 297 296 295 293 292 290 289 287 285 283 280 278 275 271 268 265 261 257 253 251 249 245 243 241 240 240 239 237 236 234 231 229 227 226 226
305 305 304 303 302 300 299 298 296 295 293 292 291 290 288 287 285 283 280 277 273 270 266 262 258 255 253 250 249 248 244 242 240 238 236 234 233 232 230 229 227 226 225
308 307 306 305 304 302 301 299 297 295 293 292 290 289 288 287 285 283 282 279 276 272 267 263 259 255 252 250 249 248 246 244 242 239 236 234 232 231 230 229 227 226 225
312 311 311 309 308 306 304 302 299 297 295 292 291 290 289 288 286 285 283 281 279 275 271 266 262 258 253 250 249 247 246 245 243 240 237 234 232 231 229 228 227 226 226
317 316 315 313 312 310 308 306 303 300 296 294 293 292 290 289 288 287 285 282 280 277 273 269 265 261 256 252 248 246 245 244 243 242 239 236 233 231 230 229 228 228 227
320 320 319 317 316 315 313 311 307 302 299 297 295 294 293 292 291 289 287 284 280 276 273 270 266 262 259 254 250 246 244 242 242 241 240 237 234 232 230 229 229 228 228
324 323 322 321 320 319 317 314 309 305 302 300 298 297 297 296 295 292 289 286 282 278 273 269 265 261 258 255 251 247 244 242 241 241 240 238 236 233 231 230 229 229 229
328 326 325 324 323 321 318 314 310 307 304 302 301 301 300 300 298 296 293 289 284 279 275 270 265 261 258 254 252 248 244 242 240 239 238 238 237 234 232 230 230 229 229
331 329 327 326 325 323 320 315 311 308 306 305 305 304 304 303 302 299 296 292 287 282 276 272 266 262 257 254 251 248 245 242 240 238 237 237 236 235 232 230 229 229 229
333 331 330 328 327 325 322 318 314 311 310 309 309 309 308 307 305 302 299 295 290 285 279 273 268 263 258 254 250 247 245 242 240 238 236 236 236 235 233 230 228 228 228
335 334 331 331 330 327 324 320 317 315 314 314 314 313 313 311 309 306 302 298 293 288 281 274 268 263 257 253 250 246 244 242 240 238 236 235 235 234 234 232 229 227 227
336 335 333 333 332 329 326 322 320 318 317 318 318 317 316 315 312 308 305 301 296 291 284 276 268 262 256 251 248 245 242 241 239 237 235 234 234 233 232 232 231 229 227
337 336 335 334 334 332 329 326 323 322 322 322 321 321 320 318 315 312 309 304 299 293 286 277 268 260 254 249 245 241 239 238 237 236 235 234 232 232 232 231 230 229 228
338 337 336 336 336 334 331 329 327 326 326 326 325 325 324 322 321 318 314 309 304 297 288 278 269 259 251 245 241 238 235 233 233 233 232 232 232 231 231 230 229 229 230
339 338 337 337 337 336 333 331 329 329 329 329 329 329 328 327 326 323 320 316 310 301 290 279 268 256 247 241 237 233 229 228 228 229 229 229 229 230 229 229 229 229 230
338 338 337 337 338 337 334 332 331 331 332 332 332 333 333 332 331 329 327 323 318 309 295 283 268 253 241 236 233 227 223 223 223 224 225 225 225 226 227 227 228 228 229
338 338 337 337 338 338 336 334 333 334 334 335 336 336 336 336 335 334 332 329 325 318 304 286 266 249 238 232 228 221 217 216 217 220 220 221 222 223 224 225 226 226 227
338 337 336 336 338 338 338 336 335 336 337 338 339 339 339 340 340 339 338 335 332 326 314 295 266 245 234 227 221 214 211 212 212 214 216 217 218 220 220 221 222 224 225
337 337 336 337 338 339 339 339 338 338 340 341 342 343 343 344 345 345 344 341 339 333 324 301 268 240 226 218 212 209 207 208 209 211 213 214 216 217 217 218 219 220 223
337 337 337 337 339 340 340 340 340 341 342 344 345 346 348 349 349 350 350 349 345 342 334 313 262 227 214 208 205 205 205 205 207 209 212 213 215 216 216 217 218 217 218
338 338 338 338 340 341 342 341 342 343 344 347 348 350 351 352 353 355 356 356 355 353 350 338 270 211 202 200 199 200 201 202 204 206 210 212 214 216 217 216 217 215 214
340 339 338 339 340 342 343 343 343 344 346 349 351 352 354 355 357 359 0 1 2 3 4 8 13 190 191 194 197 198 197 198 200 203 206 207 210 214 214 214 214 213 209
Height
5861 5859 5857 5854 5851 5848 5844 5840 5837 5834 5831 5828 5825 5822 5819 5816 5812 5809 5805 5801 5797 5794 5793 5793 5794 5795 5798 5801 5803 5806 5808 5810 5812 5815 5817 5819 5820 5822 5824 5826 5828 5831 5833
5854 5852 5849 5846 5842 5839 5835 5831 5828 5825 5822 5819 5815 5812 5809 5806 5803 5800 5797 5794 5791 5789 5787 5786 5785 5787 5790 5792 5794 5797 5800 5802 5804 5807 5809 5811 5814 5815 5817 5820 5823 5825 5828
5848 5845 5842 5839 5835 5831 5827 5823 5819 5816 5812 5809 5806 5802 5799 5796 5794 5791 5788 5786 5784 5782 5781 5780 5780 5781 5782 5783 5786 5788 5791 5793 5796 5798 5801 5804 5806 5808 5812 5814 5817 5820 5822
5842 5839 5835 5831 5827 5823 5819 5815 5810 5806 5802 5798 5795 5792 5788 5785 5783 5780 5778 5777 5775 5774 5773 5773 5772 5773 5774 5775 5777 5779 5781 5784 5787 5790 5793 5796 5798 5802 5805 5808 5811 5814 5817
5836 5833 5829 5824 5819 5815 5810 5806 5801 5796 5792 5787 5783 5780 5776 5773 5771 5768 5767 5766 5764 5764 5763 5763 5763 5764 5765 5766 5768 5770 5772 5775 5778 5781 5784 5787 5791 5794 5797 5801 5804 5808 5811
5831 5826 5822 5817 5812 5807 5802 5797 5792 5787 5781 5777 5772 5768 5764 5761 5758 5756 5754 5753 5752 5752 5751 5752 5753 5753 5754 5756 5758 5761 5763 5765 5768 5771 5775 5778 5782 5786 5790 5793 5797 5801 5805
5824 5819 5815 5810 5804 5799 5793 5787 5782 5777 5771 5766 5761 5757 5753 5750 5747 5744 5742 5740 5739 5738 5738 5739 5740 5741 5743 5745 5747 5749 5752 5755 5758 5761 5765 5768 5773 5777 5781 5786 5790 5794 5798
5817 5812 5806 5801 5795 5789 5783 5777 5771 5766 5760 5755 5751 5746 5743 5739 5736 5733 5730 5728 5726 5724 5724 5724 5725 5727 5729 5732 5734 5737 5740 5744 5747 5751 5755 5758 5763 5767 5772 5777 5781 5786 5791
5809 5803 5797 5791 5785 5779 5773 5767 5761 5755 5749 5745 5740 5736 5732 5728 5725 5722 5719 5716 5714 5711 5710 5709 5709 5710 5713 5716 5719 5722 5726 5730 5734 5739 5743 5747 5752 5757 5762 5767 5773 5778 5782
5801 5795 5789 5782 5776 5769 5762 5756 5749 5744 5739 5735 5730 5726 5722 5718 5714 5710 5707 5703 5700 5697 5695 5694 5693 5694 5695 5698 5701 5706 5710 5715 5720 5724 5729 5735 5740 5746 5751 5757 5762 5768 5773
5794 5788 5780 5773 5766 5759 5752 5745 5739 5734 5729 5724 5720 5715 5710 5705 5700 5695 5691 5687 5684 5680 5678 5676 5676 5676 5677 5679 5682 5687 5692 5698 5704 5709 5715 5721 5727 5733 5739 5745 5751 5757 5763
5787 5779 5772 5764 5757 5750 5742 5736 5730 5724 5719 5714 5709 5703 5697 5691 5685 5678 5673 5668 5664 5660 5657 5656 5655 5656 5657 5659 5662 5667 5672 5679 5686 5692 5699 5705 5712 5718 5725 5732 5739 5745 5752
5780 5772 5764 5756 5749 5741 5733 5726 5720 5714 5708 5703 5696 5690 5683 5675 5668 5660 5653 5647 5641 5637 5634 5632 5632 5633 5635 5637 5641 5645 5651 5658 5665 5673 5681 5688 5695 5703 5710 5717 5725 5733 5740
5772 5764 5756 5748 5740 5732 5724 5717 5710 5703 5697 5690 5683 5675 5667 5659 5650 5642 5633 5625 5619 5614 5610 5608 5608 5609 5611 5614 5618 5623 5629 5636 5644 5652 5661 5670 5678 5686 5694 5702 5711 5719 5727
5766 5757 5749 5741 5732 5724 5715 5707 5700 5693 5686 5678 5670 5661 5652 5642 5632 5623 5613 5605 5597 5591 5587 5584 5583 5584 5586 5591 5595 5601 5607 5614 5622 5631 5641 5650 5659 5669 5678 5687 5696 5704 5712
5759 5751 5742 5733 5724 5715 5706 5697 5690 5683 5675 5666 5657 5647 5637 5626 5615 5604 5593 5584 5576 5569 5564 5561 5560 5561 5564 5569 5574 5580 5586 5594 5602 5611 5621 5630 5640 5651 5662 5672 5681 5690 5698
5753 5744 5735 5725 5716 5706 5697 5688 5680 5672 5663 5654 5644 5634 5622 5611 5599 5587 5575 5565 5556 5549 5543 5540 5539 5540 5543 5548 5554 5561 5568 5577 5585 5593 5602 5611 5621 5633 5645 5656 5666 5675 5684
5746 5737 5727 5718 5708 5697 5688 5678 5670 5661 5652 5643 5632 5620 5608 5596 5583 5570 5558 5548 5538 5531 5525 5522 5521 5522 5526 5530 5537 5544 5553 5562 5570 5578 5586 5594 5604 5615 5627 5639 5651 5660 5670
5739 5729 5719 5709 5699 5689 5679 5670 5661 5652 5642 5632 5620 5608 5595 5582 5569 5556 5544 5533 5523 5515 5510 5507 5506 5507 5511 5516 5522 5531 5540 5550 5558 5566 5573 5581 5589 5599 5611 5625 5637 5648 5657
5732 5722 5712 5701 5692 5681 5671 5662 5652 5643 5633 5622 5610 5597 5584 5571 5558 5545 5533 5521 5512 5504 5498 5495 5494 5496 5500 5505 5511 5520 5530 5539 5548 5556 5563 5570 5578 5585 5596 5608 5620 5633 5644
5726 5716 5705 5694 5684 5674 5664 5654 5645 5635 5625 5613 5601 5588 5575 5562 5549 5536 5524 5513 5504 5497 5491 5487 5486 5488 5492 5497 5503 5512 5521 5530 5539 5547 5554 5561 5568 5575 5585 5595 5607 5618 5630
5720 5709 5699 5688 5678 5667 5657 5648 5638 5628 5617 5606 5594 5581 5568 5555 5542 5530 5518 5508 5499 5492 5486 5483 5482 5484 5487 5491 5498 5506 5514 5523 5531 5539 5547 5554 5560 5567 5575 5585 5595 5606 5618
5713 5703 5693 5682 5672 5661 5651 5641 5632 5622 5611 5600 5588 5575 5562 5549 5537 5525 5514 5505 5496 5489 5484 5481 5480 5481 5484 5488 5494 5501 5509 5517 5525 5533 5540 5547 5554 5561 5568 5576 5584 5595 5607
5707 5697 5687 5676 5666 5655 5645 5635 5626 5616 5606 5595 5583 5571 5559 5546 5534 5523 5512 5503 5495 5488 5483 5479 5478 5480 5482 5487 5492 5498 5505 5513 5521 5528 5535 5542 5549 5555 5562 5568 5576 5586 5597
5701 5691 5681 5671 5661 5651 5640 5631 5621 5612 5602 5591 5580 5568 5556 5544 5533 5522 5512 5503 5495 5488 5483 5479 5478 5479 5482 5486 5491 5497 5503 5510 5518 5525 5532 5538 5544 5551 5556 5562 5570 5578 5587
5695 5685 5675 5666 5656 5646 5636 5626 5617 5608 5598 5588 5577 5566 5555 5544 5533 5522 5513 5505 5497 5490 5485 5481 5480 5480 5483 5487 5491 5497 5503 5509 5516 5523 5529 5535 5541 5546 5552 5557 5564 5571 5580